Kosmos-706

operational
NORAD ID: 7625 Int'l Des: 1975-007 Owner: PVO Country: SU
MEOELLIPTICALHEO_ELLIPTICALSEMI_SYNCMOLNIYA

Kosmos-706について

説明を読み込み中...

リアルタイム位置

3D地球を読み込み中...

次回通過

高度履歴

Altitude vs Time

uPlot chart will show altitude changes over time

軌道要素

1 07625U 75007A 26040.22199342 -.00000726 00000-0 00000-0 0 9999
2 07625 63.9823 167.2451 6865829 3.1692 359.4012 2.00695604233873
Epoch: Feb 9, 2026 • Age: 543 hours

現在のステータス

高度 37677.4 km
速度 1.76 km/s
衛星直下点 3.48°N, 127.32°W
タイプ other

大規模コンステレーション

Loading constellations...